Regional Weather Roundup
Issued by NWS

Home | Current Version | Previous Version | Graphics & Text | Print | Product List | Glossary On
Versions: 1 2 3 4 5 6 7 8 9 10 11 12 13 14 15 16 17 18 19 20 21 22 23 24 25 26 27 28 29 30 31 32 33 34 35 36 37 38 39 40 41 42 43 44 45 46 47 48 49 50
000
ASUS45 KCYS 200610
RWRWY

WYOMING REGIONAL WEATHER ROUNDUP
NATIONAL WEATHER SERVICE CHEYENNE WY
1100 PM MST SUN FEB 19 2017

NOTE:  "FAIR" INDICATES FEW OR NO CLOUDS BELOW 12,000 FEET
WITH NO SIGNIFICANT WEATHER AND/OR OBSTRUCTIONS TO VISIBILITY.

WYZ001-200700-
YELLOWSTONE NATIONAL PARK

CITY           SKY/WX    TMP DP  RH WIND       PRES   REMARKS
LK YELLOWSTONE   N/A     23  20  88 VRB5      29.86R WCI  17
6HR MIN TEMP:  23; 6HR MAX TEMP:  28; 6HR PCP:  0.06;

W YELLOWSTONE  NOT AVBL

$$
WYZ002>013-054>058-071-098>099-200700-
NORTHERN WYOMING

CITY           SKY/WX    TMP DP  RH WIND       PRES   REMARKS
JACKSON        CLOUDY    28  23  80 S3        29.89R
CODY           FAIR      40  16  37 W12G22    29.73R WCI  33
GREYBULL       FAIR      42  26  53 W3        29.73R
6HR MIN TEMP:  39; 6HR MAX TEMP:  45;

WORLAND        FAIR      37  32  82 SE13      29.74R WCI  29
6HR MIN TEMP:  35; 6HR MAX TEMP:  44;

SHERIDAN       CLOUDY    38  34  85 SW6       29.67R WCI  33
6HR MIN TEMP:  38; 6HR MAX TEMP:  46; 6HR PCP:  0.07;

BUFFALO        CLOUDY    40  32  73 CALM      29.68R
6HR MIN TEMP:  39; 6HR MAX TEMP:  50; 6HR PCP: TRACE;

GILLETTE       CLOUDY    43  34  70 NW16      29.64R
6HR MIN TEMP:  41; 6HR MAX TEMP:  56;

HULETT         CLOUDY    45  32  61 NW7       29.64R
NEWCASTLE      FAIR      46  32  57 SW3       29.61F

$$
WYZ014>020-022>026-101>103-200700-
CENTRAL WYOMING

CITY           SKY/WX    TMP DP  RH WIND       PRES   REMARKS
BIG PINEY      FAIR      18  13  80 CALM      29.92R
6HR MIN TEMP:  18; 6HR MAX TEMP:  33; 6HR PCP:  0.01;

PINEDALE       FAIR      18  16  93 N3        29.92R
DUBOIS         FAIR      27  14  59 NW17      29.82R WCI  14
LANDER         FAIR      37  13  37 NW8       29.80R WCI  31
6HR MIN TEMP:  35; 6HR MAX TEMP:  48;

RIVERTON       FAIR      31  22  69 W8        29.81R WCI  23
6HR MIN TEMP:  29; 6HR MAX TEMP:  41;

CASPER         CLOUDY    40  24  53 W15       29.75R WCI  32
6HR MIN TEMP:  39; 6HR MAX TEMP:  48;

DOUGLAS        FAIR      46  27  47 W24G33    29.69S
6HR MIN TEMP:  45; 6HR MAX TEMP:  51;


$$
WYZ021-027>030-104>119-200700-
SOUTHERN WYOMING

CITY           SKY/WX    TMP DP  RH WIND       PRES   REMARKS
EVANSTON       FAIR      30  24  78 S3        29.94R
6HR MIN TEMP:  29; 6HR MAX TEMP:  34; 6HR PCP: TRACE;

KEMMERER         N/A     27  23  86 W3        29.93R
FORT BRIDGER   FAIR      32  29  90 SW16      29.95S WCI  21
ROCK SPRINGS   FAIR      31  27  85 CALM      29.95R
6HR MIN TEMP:  29; 6HR MAX TEMP:  35; 6HR PCP: TRACE;

DIXON            N/A     31  28  91 W3        29.98R
RAWLINS        FAIR      32  24  72 W24G31    29.87R WCI  19
6HR MIN TEMP:  32; 6HR MAX TEMP:  36; 6HR PCP: TRACE;

SARATOGA       FAIR      30  30 100 W10       29.91R WCI  21
LARAMIE        CLOUDY    34  21  59 W20G29    29.81R WCI  23
6HR MIN TEMP:  33; 6HR MAX TEMP:  39; 6HR PCP:  0.02;

CHEYENNE       CLOUDY    42  22  44 NW20G31   29.74R
6HR MIN TEMP:  41; 6HR MAX TEMP:  54; 6HR PCP: TRACE;

TORRINGTON     CLOUDY    47  33  58 W12       29.67S
6HR MIN TEMP:  47; 6HR MAX TEMP:  57; 6HR PCP: TRACE;

PINE BLUFFS    CLOUDY    43  34  70 NW15G28   29.74R

$$



USA.gov is the U.S. government's official web portal to all federal, state and local government web resources and services.